Location: Montreal
(45.5000°N, 73.5833°W)
Time: 00:42:49
(UTC-05:00)

Vanguard 1 - Pass Details

Date: 27 October 2017
Orbit: 650 x 3834 km, 34.2° (Epoch: 17 November)

Event Time Altitude Azimuth Distance (km) Brightness Sun altitude
Rises 03:33:06 0° 269° (W) 5,606 - -40.8°
Reaches altitude 10° 03:36:19 10° 264° (W) 4,956 - -40.3°
Exits shadow 03:49:48 50° 206° (SSW) 3,802 12.6 -38.1°
Maximum altitude 03:51:08 51° 195° (SSW) 3,860 12.6 -37.9°
Drops below altitude 10° 04:12:42 10° 129° (SE) 6,934 14.7 -34.4°
Sets 04:18:19 0° 125° (SE) 7,903 15.1 -33.4°
